[[{"header":{"parameterUnit":"m.s-1","parameterCategory":2,"la1":30.2991,"la2":30.254,"lo1":-89.0895,"lo2":-89.0444,"dy":0.0017,"dx":0.0017,"nx":28,"ny":28,"refTime":"2026-01-02T09:00:00:Z","depth":"0","parameterNumber":2,"parameterNumberName":"U-component_of_CURRENTS"},"data":[0,0,0,0,0,0,0,0,0,0,0,0,0,0,0,0,0,0,0,0,0,0,0,0,0,0,0,0,0,0,0,0,0,0,0,0,0,0,0,0,0,0,0,0,0,0,0,0,0,0,0,0,0,0,0,0,0,0,0.4276,0.4277,0,0.4367,0.4368,0.4369,0.4376,0.4375,0.4374,0.4373,0.4407,0.4408,0.441,0,0,0,0,0,0,0,0,0,0,0,0,0,0.4131,0.4133,0.4275,0.4277,0.4278,0.4367,0.4368,0.4369,0.4376,0.4375,0.4374,0.4373,0.4406,0.4408,0.441,0,0,0,0,0,0,0,0,0,0,0,0,0,0.4202,0.4134,0.4275,0.4294,0.4297,0.4367,0.4368,0.4369,0.4376,0.4375,0.4374,0.4373,0.4406,0.4408,0.441,0.4447,0,0,0.4417,0.4418,0,0,0,0,0,0,0,0,0.4198,0.4207,0.429,0.4293,0.4297,0.4361,0.4329,0.4393,0.4376,0.4343,0.4373,0.4372,0.4389,0.4393,0.4409,0.4449,0.445,0.4418,0.4419,0.442,0.4421,0,0,0,0,0,0,0,0.4193,0.4204,0.4309,0.4292,0.4296,0.4307,0.4315,0.4342,0.4368,0.4346,0.4347,0.4362,0.4389,0.4407,0.441,0.4451,0.4418,0.442,0.4421,0.4422,0.4516,0.4517,0,0,0,0,0,0,0.4188,0.4199,0.4306,0.4312,0.4247,0.4311,0.432,0.4339,0.4369,0.4374,0.4363,0.4362,0.4403,0.4407,0.4411,0.4479,0.442,0.4422,0.4424,0.4515,0.4516,0.4517,0,0,0,0,0,0,0.4185,0.4197,0.4302,0.4259,0.4274,0.4314,0.4336,0.4342,0.436,0.4383,0.4386,0.4376,0.4402,0.4407,0.4437,0.4479,0.4423,0.4426,0.4514,0.4515,0.4517,0.46,0,0,0,0,0,0,0.418,0.4195,0.4209,0.4259,0.4276,0.4352,0.4338,0.4344,0.4372,0.4372,0.4395,0.4397,0.4402,0.4433,0.4439,0.4481,0.4427,0.4512,0.4514,0.4516,0.4596,0.4604,0.4611,0,0,0,0,0,0.4175,0.42,0.4209,0.4222,0.4293,0.4353,0.4363,0.4385,0.4374,0.4394,0.4402,0.4396,0.445,0.4436,0.4443,0.4487,0.4511,0.4514,0.4516,0.4592,0.4603,0.4611,0,0,0,0,0,0,0.4147,0.4205,0.4216,0.4257,0.4305,0.4355,0.4379,0.439,0.4415,0.4409,0.4415,0.4419,0.4465,0.4456,0.4441,0.4516,0.4478,0.4482,0.4534,0.4544,0.4551,0.4571,0.4429,0,0,0,0,0,0.4148,0.4179,0.4237,0.4271,0.4296,0.4336,0.4362,0.4381,0.4411,0.442,0.444,0.4454,0.4483,0.4494,0.4519,0.4559,0.4601,0.4587,0.4595,0.4602,0.462,0.4713,0.4732,0.4525,0.4525,0.4525,0,0,0.4143,0.4183,0.4197,0.4267,0.4302,0.435,0.4348,0.4396,0.4434,0.4421,0.4472,0.4489,0.4499,0.4551,0.4569,0.4547,0.4687,0.4605,0.4611,0.4626,0.4718,0.4739,0.4757,0.4527,0.4526,0.4526,0,0,0.4155,0.4189,0.4219,0.4265,0.4329,0.4363,0.4376,0.4436,0.446,0.4514,0.4515,0.4555,0.4592,0.4621,0.4633,0.4696,0.4729,0.4696,0.4752,0.4842,0.4861,0.4878,0.4982,0.5008,0.4695,0.4695,0.4695,0,0.4142,0.4201,0.4238,0.4287,0.4331,0.4367,0.4418,0.4454,0.4515,0.4556,0.4535,0.4631,0.4632,0.471,0.4726,0.4719,0.4779,0.4719,0.4857,0.4874,0.489,0.4992,0.5019,0.4699,0.4699,0.4698,0.4698,0,0.4183,0.4233,0.4259,0.4332,0.4382,0.4435,0.4496,0.4549,0.458,0.4623,0.4713,0.473,0.4791,0.4793,0.4777,0.4889,0.4901,0.4864,0.4841,0.4917,0.5019,0.5046,0.4705,0.4704,0.4702,0.4701,0,0,0.4148,0.4263,0.4272,0.4324,0.4415,0.4465,0.4542,0.4638,0.4703,0.4757,0.4861,0.4896,0.492,0.4936,0.4935,0.4995,0.5154,0.4978,0.4981,0.5096,0.5386,0.5334,0.5359,0.5149,0.5154,0.5157,0.5422,0,0.4171,0.4275,0.4321,0.4417,0.4484,0.455,0.4622,0.471,0.4782,0.489,0.4938,0.502,0.4969,0.5011,0.5072,0.5143,0.5225,0.5088,0.5282,0.5288,0.5245,0.5387,0.5142,0.5352,0.5448,0.5452,0.5456,0,0.4205,0.4276,0.4374,0.4497,0.4528,0.4578,0.4725,0.4791,0.4936,0.4999,0.5099,0.5148,0.5269,0.5197,0.5386,0.5308,0.5359,0.5397,0.5407,0.5349,0.5286,0.5284,0.5397,0.5221,0.5497,0.5493,0.549,0,0.4213,0.4318,0.4402,0.4443,0.4574,0.4627,0.4692,0.4827,0.4915,0.5076,0.5178,0.5308,0.5414,0.5495,0.558,0.5506,0.5792,0.5697,0.5707,0.5705,0.5528,0.5502,0.55,0.5837,0.5837,0.5836,0.5835,0,0.4266,0.4344,0.4404,0.4463,0.4556,0.4631,0.4748,0.484,0.4993,0.512,0.5226,0.5365,0.5495,0.5662,0.5687,0.5817,0.5893,0.577,0.5784,0.555,0.5524,0.5383,0.5332,0.5846,0.5844,0.5842,0.584,0,0.4351,0.4375,0.4469,0.4555,0.4574,0.4649,0.4777,0.4874,0.5003,0.5187,0.5253,0.5485,0.5685,0.5813,0.5995,0.5974,0.5915,0.6087,0.5817,0.5792,0.5566,0.5529,0.5453,0.5288,0.6141,0.6142,0.6142,0,0.4463,0.4496,0.4527,0.4556,0.4603,0.4694,0.4762,0.4875,0.4973,0.5246,0.5341,0.5608,0.5761,0.6039,0.6057,0.6156,0.5957,0.5989,0.5771,0.5571,0.5542,0.5342,0.5191,0.5591,0.5587,0.5583,0.5581,0,0.4667,0.4615,0.4686,0.4689,0.4727,0.4768,0.4857,0.4927,0.5076,0.5228,0.5428,0.5569,0.581,0.5815,0.5969,0.5973,0.5687,0.5921,0.5777,0.5186,0.4906,0.4745,0.5422,0.5551,0.5554,0.5556,0.5558,0.5559,0.4819,0.4865,0.4858,0.4863,0.4862,0.4832,0.4837,0.4937,0.5057,0.5185,0.5387,0.5457,0.5559,0.5711,0.5703,0.5503,0.5497,0.5299,0.5307,0.5148,0.4859,0.549,0.5578,0.5581,0.5584,0.5586,0.5588,0,0.4982,0.499,0.5034,0.4969,0.4904,0.488,0.4889,0.483,0.4891,0.5019,0.513,0.5132,0.5153,0.5165,0.5101,0.4914,0.4661,0.4769,0.4396,0.4302,0.4923,0.4761,0.4596,0.4596,0.4596,0.4596,0.4596,0.4597,0.5076,0.5129,0.5099,0.5002,0.4921,0.4776,0.4729,0.4632,0.4624,0.4542,0.447,0.4514,0.4693,0.4801,0.4595,0.4473,0.411,0.3946,0.3956,0.4357,0.4403,0.4447,0.4277,0.4013,0.4012,0.3079,0.3073,0.3068]},{"header":{"parameterUnit":"m.s-1","parameterCategory":2,"la1":30.2991,"la2":30.254,"lo1":-89.0895,"lo2":-89.0444,"dy":0.0017,"dx":0.0017,"nx":28,"ny":28,"refTime":"2026-01-02T09:00:00:Z","depth":"0","parameterNumber":3,"parameterNumberName":"V-component_of_CURRENTS"},"data":[0,0,0,0,0,0,0,0,0,0,0,0,0,0,0,0,0,0,0,0,0,0,0,0,0,0,0,0,0,0,0,0,0,0,0,0,0,0,0,0,0,0,0,0,0,0,0,0,0,0,0,0,0,0,0,0,0,0,0.0003,0.0003,0,-0.0062,-0.0063,-0.0064,-0.0127,-0.0127,-0.0128,-0.0128,-0.0264,-0.0267,-0.027,0,0,0,0,0,0,0,0,0,0,0,0,0,-0.0023,-0.0022,0.0003,0.0003,0.0002,-0.0061,-0.0063,-0.0064,-0.0127,-0.0127,-0.0128,-0.0129,-0.0263,-0.0266,-0.027,0,0,0,0,0,0,0,0,0,0,0,0,0,-0.0045,-0.0021,0.0004,-0.0034,-0.0038,-0.0061,-0.0063,-0.0064,-0.0127,-0.0127,-0.0128,-0.0129,-0.0261,-0.0266,-0.027,-0.0283,0,0,-0.0285,-0.0287,0,0,0,0,0,0,0,0,-0.0043,-0.0044,-0.0028,-0.0032,-0.0036,-0.0084,-0.0121,-0.014,-0.0126,-0.0096,-0.0129,-0.0129,-0.0207,-0.0216,-0.0231,-0.0289,-0.0295,-0.0285,-0.0288,-0.029,-0.0291,0,0,0,0,0,0,0,-0.0041,-0.0042,-0.0026,-0.0029,-0.0033,-0.0081,-0.0084,-0.0126,-0.015,-0.0099,-0.0103,-0.0105,-0.0211,-0.0226,-0.0234,-0.0297,-0.0285,-0.0289,-0.0292,-0.0294,-0.0361,-0.036,0,0,0,0,0,0,-0.0021,-0.004,-0.0023,-0.0027,-0.0038,-0.0079,-0.0083,-0.0071,-0.0149,-0.016,-0.0104,-0.0108,-0.0217,-0.0229,-0.0239,-0.0245,-0.029,-0.0294,-0.0297,-0.0362,-0.0361,-0.036,0,0,0,0,0,0,-0.0021,-0.0018,-0.0021,-0.0034,-0.0037,-0.0077,-0.0063,-0.0071,-0.0084,-0.0151,-0.0165,-0.0108,-0.0219,-0.0233,-0.0262,-0.0251,-0.0296,-0.0301,-0.0363,-0.0362,-0.036,-0.0265,0,0,0,0,0,0,-0.0021,-0.0017,-0.0005,-0.0031,-0.0035,-0.0024,-0.0062,-0.0072,-0.0083,-0.0088,-0.0158,-0.0172,-0.022,-0.0255,-0.0267,-0.0258,-0.0304,-0.0365,-0.0363,-0.0361,-0.0269,-0.026,-0.0253,0,0,0,0,0,-0.0022,0.0006,-0.0004,-0.0002,-0.0015,-0.0023,-0.0029,-0.0064,-0.0082,-0.008,-0.0123,-0.017,-0.0252,-0.0257,-0.0272,-0.0265,-0.0366,-0.0363,-0.0361,-0.0273,-0.0262,-0.0253,0,0,0,0,0,0,0.0003,0.0002,-0.001,0.0016,0.0001,-0.0032,-0.0033,-0.0054,-0.0086,-0.0092,-0.0158,-0.0174,-0.0198,-0.0239,-0.0243,-0.0277,-0.0316,-0.0316,-0.0244,-0.0234,-0.0226,-0.0188,-0.0308,0,0,0,0,0,0.0016,0.0034,0.002,0.0039,0.0036,0.0003,-0.0006,-0.0025,-0.0054,-0.0069,-0.0116,-0.0162,-0.0199,-0.0221,-0.0263,-0.028,-0.029,-0.0283,-0.0275,-0.0268,-0.0245,-0.0245,-0.0234,-0.0353,-0.0353,-0.0353,0,0,0.0029,0.0032,0.0041,0.0045,0.0028,0.0042,-0.0005,-0.0006,0.0004,-0.0079,-0.0085,-0.0138,-0.0197,-0.0216,-0.023,-0.0249,-0.0238,-0.0265,-0.0258,-0.0239,-0.0242,-0.023,-0.022,-0.0351,-0.0351,-0.0352,0,0,0.007,0.007,0.0098,0.0097,0.0089,0.0071,0.0078,0.0051,0.0036,0.0025,-0.003,-0.0066,-0.0125,-0.0161,-0.0187,-0.0155,-0.0195,-0.0175,-0.0103,-0.0103,-0.0093,-0.0085,-0.0072,-0.0063,-0.0169,-0.0169,-0.0169,0,0.0085,0.0128,0.0102,0.0131,0.0142,0.0094,0.0128,0.0109,0.0076,0.008,0.0036,-0.0025,-0.0095,-0.0098,-0.0099,-0.0136,-0.0134,-0.0138,-0.0091,-0.0082,-0.0075,-0.0065,-0.0056,-0.0164,-0.0165,-0.0165,-0.0166,0,0.0149,0.0182,0.02,0.0224,0.0226,0.025,0.0227,0.0227,0.0198,0.018,0.0167,0.0082,0.0049,0.0014,-0.0042,-0.0022,-0.0036,-0.008,-0.0112,-0.0057,-0.005,-0.0043,-0.0157,-0.0159,-0.0161,-0.0162,0,0,0.0193,0.0238,0.0245,0.0287,0.0285,0.0305,0.0319,0.0333,0.0372,0.031,0.0359,0.0254,0.0209,0.0177,0.0103,0.009,0.0117,0.0032,0.0029,0.0054,0.0139,0.0124,0.013,0.0086,0.0088,0.0089,0.0127,0,0.0254,0.0342,0.0336,0.0419,0.0467,0.044,0.0466,0.0468,0.0455,0.0488,0.0407,0.0413,0.0272,0.0267,0.0223,0.0159,0.0141,0.0113,0.0075,0.0074,0.0061,0.0139,0.0101,0.0131,0.0134,0.0135,0.0136,0,0.0322,0.0379,0.0468,0.0548,0.0565,0.0597,0.0655,0.0678,0.0691,0.0685,0.0661,0.0606,0.0571,0.045,0.0357,0.0351,0.025,0.0188,0.0187,0.0148,0.0073,0.0073,0.0144,-0.0121,0.0147,0.0146,0.0145,0,0.039,0.0477,0.0559,0.0585,0.0651,0.0688,0.072,0.0739,0.0799,0.083,0.0893,0.0806,0.0823,0.0674,0.0507,0.0444,0.0435,0.0327,0.0221,0.0219,0.0167,0.0158,-0.0014,0.027,0.027,0.0269,0.0269,0,0.0473,0.0549,0.0604,0.0661,0.0772,0.0778,0.0895,0.0913,0.0982,0.111,0.1006,0.1109,0.0886,0.0839,0.0621,0.0474,0.0515,0.0267,0.0238,0.02,0.0193,-0.0057,-0.0213,0.0271,0.0271,0.027,0.027,0,0.0549,0.058,0.0694,0.0778,0.0812,0.0894,0.1023,0.1115,0.1163,0.1338,0.137,0.1376,0.1329,0.1096,0.0915,0.0672,0.0348,0.0425,0.0405,0.0371,-0.0021,-0.0168,-0.0346,-0.0443,0.0306,0.0306,0.0306,0,0.0606,0.0665,0.0783,0.0855,0.0901,0.1023,0.1114,0.1193,0.1309,0.1525,0.1632,0.1666,0.173,0.1457,0.1042,0.0698,0.0412,0.0408,0.025,-0.0014,-0.0201,-0.0322,-0.0399,0.0221,0.022,0.022,0.0219,0,0.0714,0.0737,0.0821,0.096,0.1069,0.1214,0.1358,0.1486,0.1631,0.1834,0.2096,0.219,0.1945,0.1616,0.112,0.0836,0.0199,0.0384,0.0112,-0.0265,-0.0408,-0.0522,0.0172,0.0214,0.0215,0.0215,0.0216,0.0216,0.0787,0.0849,0.0937,0.1068,0.1201,0.1379,0.1543,0.1744,0.2012,0.2354,0.2423,0.2624,0.206,0.1399,0.1006,0.018,0.0185,-0.0118,-0.0264,-0.0352,-0.0488,0.0211,0.0211,0.0212,0.0212,0.0212,0.0213,0,0.087,0.0926,0.1047,0.1201,0.1349,0.141,0.169,0.1901,0.2276,0.2588,0.2862,0.265,0.1981,0.1242,0.0153,-0.0388,-0.0604,-0.0698,-0.0914,-0.0953,-0.033,-0.038,-0.0508,-0.0508,-0.0508,-0.0507,-0.0507,-0.0507,0.0921,0.1022,0.1063,0.1284,0.1405,0.1664,0.1848,0.2202,0.2483,0.2891,0.3003,0.3036,0.2367,0.0498,-0.0743,-0.1013,-0.1412,-0.1516,-0.1655,-0.13,-0.1259,-0.122,-0.1305,-0.1625,-0.1626,-0.2232,-0.2239,-0.2244]}],[{"header":{"parameterUnit":"m.s-1","parameterCategory":2,"la1":30.2991,"la2":30.254,"lo1":-89.0895,"lo2":-89.0444,"dy":0.0017,"dx":0.0017,"nx":28,"ny":28,"refTime":"2026-01-02T09:00:00:Z","depth":"2","parameterNumber":2,"parameterNumberName":"U-component_of_CURRENTS"},"data":[0,0,0,0,0,0,0,0,0,0,0,0,0,0,0,0,0,0,0,0,0,0,0,0,0,0,0,0,0,0,0,0,0,0,0,0,0,0,0,0,0,0,0,0,0,0,0,0,0,0,0,0,0,0,0,0,0,0,0.3145,0.3146,0,0.3261,0.3263,0.3264,0.3283,0.3282,0.3281,0.3279,0.334,0.3343,0.3345,0,0,0,0,0,0,0,0,0,0,0,0,0,0.3043,0.3044,0.3145,0.3146,0.3147,0.3261,0.3263,0.3265,0.3283,0.3282,0.328,0.3279,0.3339,0.3342,0.3346,0,0,0,0,0,0,0,0,0,0,0,0,0,0.3118,0.3044,0.3145,0.3168,0.3171,0.326,0.3263,0.3265,0.3284,0.3282,0.328,0.3278,0.3338,0.3342,0.3346,0.341,0,0,0.3359,0.3361,0,0,0,0,0,0,0,0,0.3114,0.3122,0.3164,0.3167,0.317,0.3253,0.3249,0.331,0.3284,0.3244,0.3279,0.3277,0.3305,0.3312,0.3343,0.3413,0.3416,0.3359,0.3362,0.3364,0.3365,0,0,0,0,0,0,0,0.3108,0.3118,0.3194,0.3165,0.3169,0.3208,0.3216,0.3261,0.3285,0.3247,0.3248,0.3257,0.3307,0.3339,0.3344,0.3416,0.3359,0.3363,0.3365,0.3367,0.3492,0.3493,0,0,0,0,0,0,0.3085,0.3113,0.319,0.3197,0.3134,0.3211,0.322,0.3231,0.3286,0.3292,0.3259,0.3258,0.3333,0.3339,0.3346,0.3424,0.3364,0.3367,0.337,0.3492,0.3493,0.3493,0,0,0,0,0,0,0.3083,0.3091,0.3185,0.3155,0.3169,0.3213,0.3226,0.3234,0.3283,0.3295,0.33,0.33,0.3332,0.334,0.3377,0.3425,0.3369,0.3373,0.3491,0.3492,0.3493,0.3579,0,0,0,0,0,0,0.3079,0.309,0.311,0.3153,0.317,0.3235,0.3228,0.3238,0.3289,0.3289,0.3332,0.3335,0.3331,0.337,0.3381,0.343,0.3376,0.349,0.3491,0.3493,0.3575,0.3583,0.3589,0,0,0,0,0,0.3075,0.3094,0.3111,0.3121,0.319,0.3236,0.3249,0.3276,0.3292,0.3315,0.3332,0.3334,0.3387,0.3375,0.3387,0.3439,0.3489,0.3491,0.3492,0.3572,0.3581,0.3589,0,0,0,0,0,0,0.305,0.31,0.3117,0.3149,0.3191,0.3238,0.3269,0.3299,0.334,0.3338,0.3355,0.336,0.3408,0.3407,0.3394,0.3473,0.3436,0.344,0.3492,0.3501,0.3508,0.3508,0.338,0,0,0,0,0,0.3058,0.3091,0.3136,0.3164,0.3187,0.3242,0.3274,0.329,0.3323,0.3342,0.3379,0.3403,0.3428,0.3448,0.3467,0.3527,0.3554,0.3561,0.3568,0.3574,0.3579,0.3675,0.3693,0.3499,0.3499,0.3499,0,0,0.3063,0.3088,0.3112,0.3163,0.3203,0.3248,0.3257,0.33,0.3352,0.3342,0.3429,0.3437,0.3446,0.3496,0.3519,0.3503,0.3642,0.3577,0.3583,0.3584,0.3679,0.3698,0.3716,0.3501,0.35,0.35,0,0,0.3074,0.3107,0.3142,0.3178,0.3228,0.3262,0.3281,0.3347,0.339,0.3452,0.346,0.3494,0.3547,0.3569,0.3582,0.3646,0.3676,0.3652,0.3703,0.3797,0.3814,0.383,0.389,0.391,0.366,0.366,0.366,0,0.3075,0.3119,0.3159,0.3194,0.3237,0.3273,0.3324,0.3376,0.3448,0.3493,0.3474,0.3571,0.3581,0.3656,0.3664,0.3669,0.3713,0.3675,0.3811,0.3827,0.3842,0.3899,0.3921,0.3664,0.3664,0.3663,0.3663,0,0.3109,0.3154,0.3174,0.3238,0.3294,0.333,0.3403,0.346,0.3508,0.3558,0.3644,0.366,0.3719,0.3726,0.3713,0.3826,0.3821,0.3812,0.3797,0.3867,0.3922,0.3943,0.367,0.3669,0.3668,0.3667,0,0,0.3082,0.318,0.3187,0.3236,0.3318,0.3363,0.3453,0.3546,0.3616,0.3671,0.3777,0.3808,0.3832,0.3846,0.3858,0.3919,0.4057,0.3912,0.3915,0.3985,0.4258,0.416,0.4173,0.4088,0.4092,0.4095,0.4255,0,0.3097,0.3176,0.3224,0.3315,0.338,0.344,0.3526,0.3613,0.3689,0.3795,0.3835,0.3922,0.388,0.3921,0.3983,0.405,0.4116,0.4013,0.4165,0.4169,0.4087,0.4196,0.387,0.3978,0.4276,0.4279,0.4282,0,0.3116,0.3176,0.3268,0.3385,0.3417,0.3467,0.3612,0.3693,0.3829,0.3893,0.3982,0.403,0.4144,0.4089,0.425,0.4194,0.4234,0.4259,0.4266,0.4158,0.4111,0.3954,0.4005,0.4317,0.4314,0.4311,0.4309,0,0.3108,0.3207,0.3284,0.3321,0.3451,0.3504,0.3578,0.3719,0.3815,0.3977,0.406,0.4182,0.4284,0.435,0.441,0.436,0.4572,0.4515,0.4455,0.4448,0.4189,0.4151,0.4626,0.4626,0.4626,0.4625,0.4625,0,0.3111,0.3183,0.3277,0.3319,0.3418,0.3515,0.3634,0.3725,0.388,0.3997,0.412,0.423,0.4361,0.4486,0.4493,0.4557,0.4658,0.4489,0.4499,0.4205,0.4169,0.4464,0.4443,0.4631,0.463,0.4629,0.4628,0,0.3117,0.3173,0.3271,0.3383,0.3419,0.3501,0.3657,0.3727,0.3896,0.4059,0.4124,0.4338,0.4488,0.4582,0.4723,0.468,0.4727,0.4714,0.4345,0.4307,0.4512,0.4494,0.4669,0.4667,0.4666,0.4665,0.4664,0,0.318,0.3191,0.3293,0.3333,0.3381,0.35,0.3556,0.3721,0.3802,0.4095,0.4153,0.4389,0.4491,0.4674,0.4654,0.4682,0.4737,0.4387,0.4211,0.4533,0.4526,0.4509,0.4493,0.3904,0.3897,0.3891,0.3886,0,0.3213,0.3191,0.3208,0.3312,0.3366,0.3454,0.3552,0.3611,0.3802,0.3921,0.4093,0.4212,0.4431,0.4328,0.4405,0.436,0.435,0.4266,0.4755,0.3933,0.3822,0.3811,0.3819,0.3834,0.3839,0.3843,0.3846,0.3848,0.3191,0.3147,0.3121,0.3205,0.3303,0.3352,0.3359,0.3453,0.3532,0.3666,0.3889,0.3961,0.4069,0.4004,0.39,0.3834,0.4097,0.3912,0.3926,0.3947,0.382,0.3711,0.3677,0.3681,0.3685,0.3688,0.3691,0,0.3052,0.2995,0.3024,0.306,0.3123,0.3248,0.3292,0.3256,0.3246,0.3426,0.3534,0.3339,0.332,0.3416,0.3235,0.324,0.3172,0.311,0.2983,0.3041,0.3091,0.2913,0.2534,0.253,0.2526,0.2522,0,0,0.2908,0.2824,0.2758,0.279,0.2913,0.2926,0.2908,0.2875,0.2946,0.291,0.2929,0.3238,0.3369,0.2915,0.2857,0.2662,0.2825,0.2573,0.3517,0.3429,0.3473,0.3588,0.3386,0,0,0,0,0]},{"header":{"parameterUnit":"m.s-1","parameterCategory":2,"la1":30.2991,"la2":30.254,"lo1":-89.0895,"lo2":-89.0444,"dy":0.0017,"dx":0.0017,"nx":28,"ny":28,"refTime":"2026-01-02T09:00:00:Z","depth":"2","parameterNumber":3,"parameterNumberName":"V-component_of_CURRENTS"},"data":[0,0,0,0,0,0,0,0,0,0,0,0,0,0,0,0,0,0,0,0,0,0,0,0,0,0,0,0,0,0,0,0,0,0,0,0,0,0,0,0,0,0,0,0,0,0,0,0,0,0,0,0,0,0,0,0,0,0,0.0102,0.0101,0,0.0037,0.0036,0.0035,-0.0017,-0.0017,-0.0017,-0.0017,-0.0123,-0.0125,-0.0128,0,0,0,0,0,0,0,0,0,0,0,0,0,0.0069,0.007,0.0102,0.0101,0.0101,0.0037,0.0035,0.0034,-0.0017,-0.0017,-0.0017,-0.0017,-0.0122,-0.0125,-0.0128,0,0,0,0,0,0,0,0,0,0,0,0,0,0.0048,0.007,0.0102,0.007,0.0067,0.0037,0.0035,0.0034,-0.0017,-0.0017,-0.0017,-0.0018,-0.0121,-0.0125,-0.0128,-0.0147,0,0,-0.014,-0.0142,0,0,0,0,0,0,0,0,0.005,0.0049,0.0075,0.0072,0.0069,0.0021,-0.0015,-0.0027,-0.0017,0.0011,-0.0017,-0.0018,-0.0076,-0.0084,-0.01,-0.0152,-0.0157,-0.0141,-0.0143,-0.0145,-0.0146,0,0,0,0,0,0,0,0.0051,0.0051,0.0072,0.0075,0.0071,0.0021,0.0018,-0.0018,-0.0033,0.0009,0.0006,0.0004,-0.0079,-0.0096,-0.0102,-0.0158,-0.0141,-0.0144,-0.0147,-0.0148,-0.0212,-0.0211,0,0,0,0,0,0,0.0073,0.0053,0.0075,0.0071,0.0062,0.0022,0.0019,0.0034,-0.0032,-0.0041,0.0005,0.0002,-0.0089,-0.0098,-0.0106,-0.0108,-0.0145,-0.0149,-0.0151,-0.0213,-0.0212,-0.0211,0,0,0,0,0,0,0.0073,0.0076,0.0077,0.0062,0.0059,0.0024,0.004,0.0033,0.0018,-0.0034,-0.0045,-0.0001,-0.0089,-0.0101,-0.0123,-0.0113,-0.015,-0.0154,-0.0213,-0.0212,-0.0211,-0.0126,0,0,0,0,0,0,0.0072,0.0077,0.0088,0.0064,0.0061,0.0076,0.004,0.0032,0.0019,0.0015,-0.0042,-0.0053,-0.009,-0.0117,-0.0127,-0.0119,-0.0157,-0.0214,-0.0213,-0.0212,-0.013,-0.0122,-0.0116,0,0,0,0,0,0.0072,0.0102,0.0089,0.0091,0.0081,0.0078,0.0071,0.0041,0.002,0.0024,-0.0014,-0.0051,-0.0116,-0.0119,-0.0131,-0.0124,-0.0215,-0.0213,-0.0212,-0.0133,-0.0124,-0.0116,0,0,0,0,0,0,0.0099,0.0099,0.0085,0.0115,0.0101,0.0071,0.007,0.0048,0.0019,0.0012,-0.0043,-0.0055,-0.0072,-0.0108,-0.011,-0.0139,-0.0172,-0.0173,-0.0108,-0.01,-0.0093,-0.0061,-0.016,0,0,0,0,0,0.011,0.0129,0.0116,0.0138,0.0134,0.01,0.0091,0.0074,0.0049,0.0035,-0.0004,-0.0045,-0.0077,-0.0094,-0.0128,-0.0143,-0.0177,-0.0147,-0.014,-0.0133,-0.0115,-0.0159,-0.0155,-0.0206,-0.0206,-0.0206,0,0,0.0121,0.0128,0.0135,0.0143,0.0126,0.014,0.0094,0.0093,0.0103,0.0028,0.0025,-0.0024,-0.0075,-0.009,-0.0101,-0.0117,-0.0137,-0.0132,-0.0126,-0.0111,-0.0157,-0.0152,-0.0148,-0.0205,-0.0205,-0.0205,0,0,0.0165,0.0165,0.0193,0.0193,0.0186,0.0168,0.0173,0.0147,0.0133,0.0124,0.0072,0.0039,-0.001,-0.0042,-0.0065,-0.004,-0.01,-0.0058,0.0003,-0.004,-0.0036,-0.0033,-0.0069,-0.007,-0.0054,-0.0053,-0.0053,0,0.0177,0.0223,0.0199,0.023,0.0241,0.019,0.0223,0.0203,0.0173,0.0172,0.0138,0.0068,0.0017,0.0003,0.0008,-0.0024,-0.0056,-0.0024,-0.003,-0.0028,-0.0026,-0.0064,-0.0066,-0.0049,-0.005,-0.005,-0.005,0,0.0243,0.0278,0.0297,0.0322,0.0325,0.0347,0.0324,0.0322,0.0291,0.0268,0.0244,0.0168,0.0132,0.0101,0.006,0.0049,0.002,-0.0017,-0.0048,-0.0016,-0.0058,-0.0062,-0.0043,-0.0044,-0.0046,-0.0047,0,0,0.0278,0.0334,0.034,0.0379,0.0381,0.0399,0.0413,0.0421,0.0442,0.0383,0.0403,0.032,0.0269,0.0239,0.0171,0.0127,0.0099,0.0068,0.0063,0.0039,0.0009,-0.0039,-0.0048,0.0057,0.0057,0.0057,-0.0025,0,0.0338,0.043,0.0432,0.0511,0.0557,0.053,0.0552,0.0547,0.0524,0.0527,0.044,0.0422,0.0324,0.0304,0.0245,0.0143,0.0094,0.0125,-0.0024,-0.0028,-0.007,-0.0052,-0.0019,-0.0091,-0.0029,-0.003,-0.003,0,0.0406,0.0464,0.0554,0.063,0.0644,0.0673,0.0711,0.073,0.0709,0.0692,0.0647,0.0574,0.0505,0.0414,0.0254,0.0278,0.0157,0.0065,0.0059,-0.0014,-0.0082,-0.0116,-0.0101,-0.0037,-0.0037,-0.0036,-0.0036,0,0.0464,0.0555,0.0636,0.0661,0.0721,0.0754,0.0779,0.0778,0.0821,0.0799,0.0825,0.0706,0.0676,0.0503,0.0301,0.0279,0.0125,0.0067,-0.0091,-0.0095,-0.0109,-0.0115,-0.0045,-0.0045,-0.0045,-0.0044,-0.0044,0,0.0544,0.0611,0.0673,0.0724,0.0819,0.0828,0.092,0.0924,0.0957,0.1038,0.0917,0.0946,0.0698,0.0574,0.0359,0.0132,0.0163,-0.0069,-0.0117,-0.0079,-0.0081,-0.0069,-0.0071,-0.0048,-0.0047,-0.0046,-0.0046,0,0.06,0.064,0.0742,0.0822,0.0854,0.092,0.103,0.1101,0.1114,0.122,0.1225,0.1137,0.0971,0.0706,0.0438,0.0233,-0.0,-0.0093,-0.003,-0.007,-0.0207,-0.0203,-0.0273,-0.0275,-0.0277,-0.0278,-0.028,0,0.0638,0.0695,0.0814,0.0878,0.0919,0.1026,0.1108,0.1168,0.1264,0.1349,0.1416,0.1294,0.1226,0.0807,0.0412,0.0029,-0.0014,-0.0185,-0.0233,-0.0189,-0.0229,-0.0222,-0.0216,-0.0217,-0.0218,-0.0218,-0.0219,0,0.0694,0.0728,0.0808,0.0954,0.1054,0.1196,0.1327,0.1443,0.1543,0.1621,0.1712,0.1661,0.1276,0.0889,0.0358,0.0099,-0.0128,-0.0211,-0.017,-0.0168,-0.0145,-0.0182,-0.0176,-0.0224,-0.0224,-0.0223,-0.0223,-0.0223,0.0707,0.0783,0.0888,0.1029,0.1157,0.1354,0.1515,0.1663,0.1835,0.1987,0.192,0.1852,0.1417,0.0727,0.0281,-0.0182,-0.0172,-0.033,-0.0325,-0.0319,-0.0301,-0.0283,-0.0385,-0.0386,-0.0386,-0.0386,-0.0386,0,0.0735,0.0818,0.0963,0.1144,0.131,0.1376,0.1652,0.1826,0.206,0.2116,0.2155,0.1735,0.1291,0.0801,0.0109,-0.0312,-0.0331,-0.0432,-0.036,-0.0352,-0.0345,-0.0326,-0.0418,-0.042,-0.0421,-0.0422,0,0,0.0746,0.0889,0.1,0.1254,0.138,0.1642,0.1832,0.2064,0.2189,0.2252,0.218,0.2041,0.1438,0.0937,0.0364,-0.0022,-0.0085,-0.0098,-0.003,0.0131,0.0143,-0.025,-0.0208,0,0,0,0,0]}],[{"header":{"parameterUnit":"m.s-1","parameterCategory":2,"la1":30.2991,"la2":30.254,"lo1":-89.0895,"lo2":-89.0444,"dy":0.0017,"dx":0.0017,"nx":28,"ny":28,"refTime":"2026-01-02T09:00:00:Z","depth":"4","parameterNumber":2,"parameterNumberName":"U-component_of_CURRENTS"},"data":[0,0,0,0,0,0,0,0,0,0,0,0,0,0,0,0,0,0,0,0,0,0,0,0,0,0,0,0,0,0,0,0,0,0,0,0,0,0,0,0,0,0,0,0,0,0,0,0,0,0,0,0,0,0,0,0,0,0,0.1758,0.1759,0,0.1845,0.1846,0.1846,0.1908,0.1909,0.191,0.1911,0.2043,0.2045,0.2047,0,0,0,0,0,0,0,0,0,0,0,0,0,0.162,0.1622,0.1757,0.1759,0.1761,0.1845,0.1846,0.1846,0.1908,0.1909,0.1911,0.1912,0.2042,0.2045,0.2048,0,0,0,0,0,0,0,0,0,0,0,0,0,0.1683,0.1622,0.1757,0.1808,0.1814,0.1845,0.1846,0.1846,0.1907,0.1909,0.1911,0.1913,0.2041,0.2045,0.2048,0.2033,0,0,0.2059,0.206,0,0,0,0,0,0,0,0,0.168,0.1687,0.1799,0.1804,0.1811,0.1874,0.1846,0.1914,0.1907,0.1863,0.1911,0.1914,0.1994,0.2002,0.2002,0.2039,0.2045,0.2059,0.2061,0.2063,0.2064,0,0,0,0,0,0,0,0.1675,0.1684,0.1784,0.18,0.1808,0.1819,0.1829,0.1858,0.1912,0.1867,0.1874,0.1896,0.1997,0.1999,0.2006,0.2047,0.2059,0.2062,0.2064,0.2066,0.2229,0.2231,0,0,0,0,0,0,0.168,0.168,0.1781,0.1788,0.1758,0.1821,0.1832,0.1846,0.1911,0.1925,0.1894,0.1899,0.1992,0.2002,0.2011,0.2127,0.2063,0.2066,0.2068,0.2227,0.223,0.2232,0,0,0,0,0,0,0.1676,0.1688,0.1778,0.1742,0.1756,0.1822,0.1837,0.1847,0.1895,0.1933,0.1946,0.1939,0.1993,0.2006,0.2092,0.2128,0.2068,0.2071,0.2224,0.2228,0.2231,0.2275,0,0,0,0,0,0,0.1672,0.1685,0.1709,0.1743,0.1758,0.1817,0.1836,0.1847,0.1907,0.1914,0.1974,0.1985,0.1996,0.2087,0.2096,0.2131,0.2074,0.2222,0.2226,0.223,0.2271,0.228,0.2287,0,0,0,0,0,0.1666,0.1688,0.1709,0.1723,0.1784,0.1819,0.1827,0.1874,0.1907,0.1924,0.1989,0.1986,0.2119,0.2092,0.2102,0.2139,0.222,0.2225,0.223,0.2267,0.2278,0.2287,0,0,0,0,0,0,0.1642,0.1698,0.1721,0.1761,0.1799,0.1833,0.1869,0.1897,0.1956,0.1988,0.2017,0.2032,0.2117,0.2127,0.2097,0.22,0.2168,0.2175,0.2193,0.2203,0.2211,0.2218,0.2077,0,0,0,0,0,0.1646,0.1678,0.1727,0.176,0.1789,0.1835,0.1865,0.1898,0.1951,0.1981,0.2026,0.2083,0.2134,0.2172,0.221,0.2269,0.2295,0.23,0.2308,0.2314,0.2329,0.2408,0.2424,0.2249,0.2249,0.2248,0,0,0.1645,0.1684,0.1702,0.1758,0.1798,0.1837,0.1857,0.1917,0.1955,0.1986,0.2069,0.2115,0.2158,0.2227,0.2265,0.2248,0.2379,0.2321,0.2326,0.2337,0.2415,0.2432,0.2447,0.2252,0.2251,0.2251,0,0,0.1647,0.1698,0.1724,0.1766,0.1841,0.1866,0.1894,0.1956,0.1996,0.2071,0.2111,0.2192,0.2257,0.2301,0.2329,0.2407,0.2418,0.2418,0.2466,0.2543,0.2558,0.2571,0.2624,0.2642,0.2422,0.2423,0.2423,0,0.1647,0.169,0.1736,0.178,0.1826,0.1886,0.1928,0.1967,0.2049,0.2099,0.2111,0.2257,0.2291,0.2388,0.2417,0.2425,0.2465,0.2421,0.2553,0.2567,0.258,0.263,0.2649,0.2425,0.2425,0.2425,0.2424,0,0.1665,0.1717,0.1745,0.1816,0.1861,0.1915,0.198,0.2041,0.2104,0.215,0.2273,0.2331,0.2426,0.2441,0.2455,0.2567,0.2565,0.2551,0.2524,0.26,0.2649,0.2668,0.2429,0.2428,0.2427,0.2427,0,0,0.1622,0.1733,0.1751,0.1794,0.1896,0.193,0.2014,0.2099,0.2184,0.2258,0.2364,0.2452,0.2511,0.2548,0.2583,0.2644,0.2764,0.2644,0.2646,0.2688,0.2932,0.2729,0.273,0.278,0.2783,0.2786,0.2927,0,0.163,0.1709,0.1766,0.1845,0.1892,0.1984,0.2053,0.2145,0.224,0.2354,0.2437,0.2554,0.2542,0.2621,0.2678,0.2755,0.2818,0.2727,0.286,0.2863,0.2667,0.2746,0.2798,0.2941,0.2946,0.2949,0.2951,0,0.1632,0.1687,0.1766,0.1877,0.1911,0.1972,0.2125,0.2197,0.236,0.2448,0.2579,0.2654,0.2785,0.2757,0.2917,0.2865,0.2911,0.2945,0.2951,0.2759,0.2695,0.2852,0.2985,0.2983,0.298,0.2978,0.2976,0,0.1579,0.1688,0.1753,0.1796,0.1925,0.1996,0.208,0.224,0.233,0.2538,0.2645,0.2787,0.2898,0.2975,0.3047,0.3012,0.3196,0.3154,0.3009,0.2996,0.3116,0.31,0.3266,0.3266,0.3266,0.3265,0.3265,0,0.1558,0.1614,0.1745,0.1786,0.1884,0.1985,0.2124,0.2242,0.242,0.2539,0.2703,0.2818,0.2965,0.3074,0.3106,0.3112,0.3253,0.3034,0.3024,0.313,0.3115,0.3129,0.3111,0.327,0.3269,0.3268,0.3267,0,0.1481,0.1579,0.165,0.1798,0.1866,0.1934,0.2138,0.222,0.2425,0.2593,0.267,0.2887,0.303,0.3133,0.3273,0.3179,0.3212,0.3179,0.3299,0.3291,0.2945,0.2929,0.3029,0.3023,0.3018,0.3014,0.301,0,0.1416,0.1453,0.1643,0.1694,0.1772,0.1908,0.1999,0.2211,0.2304,0.2605,0.2658,0.2884,0.3004,0.3047,0.3154,0.3202,0.316,0.3149,0.3022,0.2944,0.2926,0.2917,0.2907,0.3002,0.3001,0.3,0.2999,0,0.1253,0.1362,0.1434,0.1576,0.168,0.1788,0.1942,0.2009,0.2245,0.2465,0.2611,0.2705,0.2854,0.2937,0.2999,0.3019,0.3134,0.3096,0.3104,0.2985,0.2913,0.2898,0.2894,0.2981,0.2984,0.2985,0.2986,0,0.111,0.1135,0.1263,0.1396,0.1528,0.161,0.1728,0.1854,0.1988,0.2331,0.2377,0.2622,0.2832,0.2845,0.2901,0.2905,0.285,0.2737,0.2764,0.2784,0.2632,0.2499,0.2448,0,0,0,0,0,0.0932,0.0969,0.1061,0.1192,0.1339,0.1443,0.1647,0.1766,0.2039,0.2084,0.2228,0.2365,0.248,0.2601,0.2554,0.2754,0.2828,0.2683,0.2702,0.2885,0.2905,0.2744,0,0,0,0,0,0,0.0804,0.0855,0.098,0.1013,0.1093,0.1216,0.1357,0.1542,0.1595,0.1892,0.1977,0.2201,0.2349,0.2482,0.2503,0.2535,0.2493,0.284,0.2833,0.2874,0.2892,0.2908,0.275,0,0,0,0,0]},{"header":{"parameterUnit":"m.s-1","parameterCategory":2,"la1":30.2991,"la2":30.254,"lo1":-89.0895,"lo2":-89.0444,"dy":0.0017,"dx":0.0017,"nx":28,"ny":28,"refTime":"2026-01-02T09:00:00:Z","depth":"4","parameterNumber":3,"parameterNumberName":"V-component_of_CURRENTS"},"data":[0,0,0,0,0,0,0,0,0,0,0,0,0,0,0,0,0,0,0,0,0,0,0,0,0,0,0,0,0,0,0,0,0,0,0,0,0,0,0,0,0,0,0,0,0,0,0,0,0,0,0,0,0,0,0,0,0,0,0.0161,0.0161,0,0.0128,0.0127,0.0127,0.0098,0.0097,0.0097,0.0097,0.0031,0.0029,0.0028,0,0,0,0,0,0,0,0,0,0,0,0,0,0.0141,0.0142,0.0161,0.0161,0.0161,0.0128,0.0127,0.0127,0.0098,0.0097,0.0097,0.0097,0.0031,0.003,0.0028,0,0,0,0,0,0,0,0,0,0,0,0,0,0.0132,0.0142,0.0161,0.0143,0.0141,0.0128,0.0127,0.0127,0.0098,0.0097,0.0097,0.0096,0.0032,0.003,0.0028,0.0022,0,0,0.0021,0.002,0,0,0,0,0,0,0,0,0.0133,0.0133,0.0146,0.0144,0.0142,0.0117,0.0096,0.009,0.0098,0.0113,0.0097,0.0096,0.0057,0.0053,0.0047,0.0019,0.0016,0.002,0.0019,0.0018,0.0018,0,0,0,0,0,0,0,0.0134,0.0134,0.0147,0.0145,0.0143,0.0115,0.0114,0.0094,0.0087,0.0112,0.011,0.0107,0.0056,0.0049,0.0045,0.0015,0.0021,0.0019,0.0017,0.0016,-0.0027,-0.0027,0,0,0,0,0,0,0.0143,0.0135,0.0148,0.0146,0.0137,0.0116,0.0115,0.0125,0.0088,0.0082,0.0108,0.0106,0.0054,0.0048,0.0043,0.0046,0.0018,0.0016,0.0015,-0.0027,-0.0027,-0.0027,0,0,0,0,0,0,0.0143,0.0145,0.015,0.0139,0.0138,0.0118,0.0129,0.0124,0.0122,0.0085,0.0079,0.011,0.0053,0.0046,0.0031,0.0043,0.0015,0.0013,-0.0028,-0.0027,-0.0027,0.0044,0,0,0,0,0,0,0.0143,0.0145,0.0155,0.0141,0.0139,0.0154,0.0129,0.0124,0.0121,0.0118,0.0085,0.0078,0.0052,0.0035,0.0029,0.0039,0.0011,-0.0028,-0.0028,-0.0027,0.0042,0.0047,0.0051,0,0,0,0,0,0.0142,0.0165,0.0156,0.0157,0.0154,0.0155,0.0152,0.0134,0.0121,0.0129,0.0102,0.0079,0.0032,0.0033,0.0026,0.0036,-0.0028,-0.0028,-0.0027,0.0039,0.0046,0.0051,0,0,0,0,0,0,0.0164,0.0164,0.0153,0.0176,0.0168,0.015,0.0154,0.0141,0.0126,0.0121,0.0084,0.0076,0.0066,0.004,0.0042,0.0023,-0.0003,-0.0004,0.005,0.0056,0.0061,0.0074,0.0009,0,0,0,0,0,0.0172,0.0189,0.0179,0.0195,0.0194,0.0174,0.0171,0.016,0.0144,0.0137,0.0115,0.0086,0.0062,0.0051,0.0028,0.0021,-0.0023,0.002,0.0025,0.0029,0.0034,-0.0025,-0.0025,-0.0026,-0.0026,-0.0026,0,0,0.0182,0.0187,0.0193,0.02,0.0191,0.0203,0.0172,0.0174,0.0185,0.0132,0.014,0.0104,0.0064,0.0055,0.0048,0.0036,0.0006,0.003,0.0034,0.0036,-0.0025,-0.0025,-0.0025,-0.0025,-0.0025,-0.0025,0,0,0.0217,0.0217,0.0241,0.0241,0.0237,0.0226,0.0231,0.0219,0.0214,0.0212,0.0174,0.0146,0.012,0.009,0.0071,0.0087,0.0034,0.008,0.0117,0.006,0.0059,0.0058,0.0004,-0.0002,0.0083,0.0083,0.0083,0,0.0227,0.0261,0.0247,0.027,0.0276,0.0243,0.0268,0.026,0.0245,0.0242,0.0225,0.0169,0.0135,0.0113,0.0119,0.0099,0.0058,0.0101,0.0067,0.0065,0.0063,0.0007,-0.0001,0.0087,0.0086,0.0086,0.0085,0,0.0277,0.0303,0.0318,0.0337,0.0342,0.0357,0.0345,0.0347,0.0331,0.0315,0.0292,0.0239,0.0205,0.0187,0.0159,0.0131,0.0103,0.008,0.0055,0.0067,0.0007,-0.0002,0.0092,0.009,0.0089,0.0088,0,0,0.0303,0.0346,0.0351,0.0376,0.038,0.0392,0.0407,0.0411,0.042,0.0385,0.0386,0.0332,0.0292,0.0267,0.0219,0.0169,0.0116,0.0126,0.0121,0.0078,-0.0011,-0.0029,-0.0042,0.0086,0.0085,0.0084,-0.0046,0,0.0345,0.0409,0.0416,0.0471,0.05,0.0482,0.0501,0.0495,0.0478,0.0469,0.0399,0.0381,0.0327,0.0309,0.0249,0.015,0.0094,0.0154,-0.0022,-0.0027,-0.004,-0.0052,0.008,-0.0054,-0.0056,-0.0058,-0.0059,0,0.0392,0.043,0.0494,0.0545,0.0555,0.0582,0.0601,0.0615,0.0585,0.057,0.0525,0.0468,0.0394,0.0345,0.0178,0.0218,0.0114,0.003,0.0022,-0.0025,-0.0063,-0.0071,-0.0077,-0.0076,-0.0074,-0.0073,-0.0072,0,0.0424,0.0489,0.0545,0.0561,0.0604,0.0631,0.0652,0.0644,0.0669,0.0635,0.0636,0.0529,0.0482,0.0337,0.0164,0.017,-0.0032,-0.0049,-0.0165,-0.0168,-0.0144,-0.0142,-0.0169,-0.0169,-0.0168,-0.0168,-0.0168,0,0.0469,0.0517,0.0569,0.0601,0.0671,0.068,0.0744,0.0745,0.0751,0.0782,0.0694,0.0675,0.0478,0.034,0.0178,-0.0026,-0.0027,-0.0163,-0.0204,-0.0111,-0.0103,-0.0151,-0.0147,-0.0173,-0.0172,-0.0171,-0.017,0,0.0499,0.0531,0.0603,0.0663,0.0694,0.0742,0.0826,0.0868,0.0862,0.0896,0.0891,0.0776,0.0596,0.0383,0.0134,0.0001,-0.0197,-0.027,-0.0156,-0.0187,-0.0298,-0.0289,-0.0407,-0.0409,-0.041,-0.0411,-0.0412,0,0.0533,0.0566,0.0653,0.0708,0.0746,0.0826,0.0891,0.0924,0.0972,0.0955,0.0971,0.0817,0.0713,0.0352,0.0117,-0.0205,-0.0248,-0.0351,-0.0323,-0.0295,-0.0323,-0.0312,-0.0301,-0.0415,-0.0415,-0.0416,-0.0416,0,0.0583,0.0601,0.0661,0.0766,0.0851,0.0949,0.1039,0.1078,0.1109,0.1104,0.1038,0.0853,0.0643,0.0357,0.0099,-0.013,-0.0284,-0.0367,-0.0365,-0.034,-0.0306,-0.033,-0.0318,-0.0421,-0.042,-0.042,-0.042,0,0.0627,0.0667,0.0737,0.0832,0.0936,0.1035,0.1082,0.1133,0.1169,0.1143,0.1111,0.0886,0.0749,0.0394,0.0157,-0.0075,-0.0127,-0.0192,-0.02,-0.0197,-0.0101,-0.0026,-0.0093,0,0,0,0,0,0.0667,0.0714,0.0803,0.0904,0.1001,0.1063,0.1168,0.1201,0.1222,0.1192,0.1156,0.0961,0.0606,0.0444,0.0211,0.0119,-0.0176,-0.0163,-0.0256,-0.0449,-0.0443,-0.0368,0,0,0,0,0,0,0.0692,0.0777,0.0807,0.094,0.1014,0.1132,0.1199,0.1221,0.1199,0.1178,0.0991,0.0898,0.0549,0.0738,0.0204,0.0132,0.0041,-0.0331,-0.0336,-0.0453,-0.0447,-0.0443,-0.0363,0,0,0,0,0]}]]